Regional Weather Roundup
Issued by NWS Upton, NY

Current Version | Previous Version | Graphics & Text | Print | Product List | Glossary Off
Versions: 1 2 3 4 5 6 7 8 9 10 11 12 13 14 15 16 17 18 19 20 21 22 23 24 25 26 27

000
ASUS41 KOKX 272205
RWROKX

REGIONAL WEATHER ROUNDUP
NATIONAL WEATHER SERVICE NEW YORK NY
600 PM EDT WED JUL 27 2016

NOTE: "FAIR" INDICATES FEW OR NO CLOUDS BELOW 12,000 FEET WITH NO
SIGNIFICANT WEATHER AND/OR OBSTRUCTIONS TO VISIBILITY.

NYZ071-072-176-178-NJZ106-104-272300-
NEW YORK CITY METRO AREA

CITY           SKY/WX    TMP DP  RH WIND       PRES   REMARKS
Central Park   SUNNY     87  63  44 SW5       29.91F
LaGuardia APRT MOSUNNY   90  65  43 SE13      29.87F HX  92
Kennedy INTL   MOSUNNY   83  67  58 S16       29.90F
Newark/Liberty MOSUNNY   90  65  43 SE8       29.87F HX  92
Bronx Bot Gard   N/A     90  64  43 CALM      29.90F HX  91
Wall St Helipt CLEAR     88  64  45 SW7       29.89F
Teterboro      SUNNY     91  54  28 NW7       29.87S
$$

NYZ177-179-078>081-272300-
LONG ISLAND NEW YORK

CITY           SKY/WX    TMP DP  RH WIND       PRES   REMARKS
Farmingdale    SUNNY     84  64  50 S10       29.90F
MacArthur/ISP  MOSUNNY   83  67  58 S9        29.89F
Shirley        SUNNY     83  63  50 S12       29.91F
Riverhead      NOT AVBL
Westhampton    SUNNY     81  67  62 S9        29.93F
Southhampton     N/A     79  72  78 S10       29.87F
Bridgehampton    N/A     82  66  57 S1        29.90F
East Hampton   FAIR      80  66  62 SW8       29.90F
Montauk          N/A     80  65  59 VRB7      29.91F
$$

NYZ052-065-067-272300-
HUDSON VALLEY

CITY           SKY/WX    TMP DP  RH WIND       PRES   REMARKS
White Plains   MOSUNNY   89  58  34 W7        29.90S
Newburgh       MOSUNNY   88  61  40 W12       29.92F
Montgomery     SUNNY     88  61  40 W5        29.90F
Poughkeepsie   SUNNY     91  58  32 SW7       29.87F HX  90
Albany         MOSUNNY   89  59  36 W8        29.88F
$$

NJZ001-105-106-008-010-013-015-019>022-104-272300-
NEW JERSEY

CITY           SKY/WX    TMP DP  RH WIND       PRES   REMARKS
Newark/Liberty MOSUNNY   90  65  43 SE8       29.87F HX  92
Teterboro      SUNNY     91  54  28 NW7       29.87S
Caldwell       SUNNY     91  59  33 CALM      29.89F HX  90
Morristown     PTSUNNY   90  59  35 E6        29.89F
Somerville     SUNNY     89  64  43 CALM      29.88F HX  90
Linden         FAIR      91  58  32 CALM      29.90F
Sussex         SUNNY     87  59  38 CALM      29.92F
Abdover          N/A     87  60  40 CALM      29.92S
Trenton        SUNNY     89  63  41 CALM      29.89F HX  90
Millville      SUNNY     86  74  67 S6        29.90F HX  94
Atlantic City  SUNNY     84  71  65 SE5       29.90F
Wrightstown    SUNNY     87  72  59 SE7       29.87S HX  93
Toms River     SUNNY     85  73  67 VRB6      29.91F HX  91
Belmar         SUNNY     84  68  58 SE8       29.92F
$$

PAZ047>061-062-071-272300-
EASTERN PENNSYLVANIA

CITY           SKY/WX    TMP DP  RH WIND       PRES   REMARKS
Philadelphia   MOSUNNY   93  62  35 W9        29.89F HX  93
Allentown      SUNNY     89  57  33 SW5       29.91F
Scranton       MOSUNNY   89  58  34 NW8       29.93F
$$

CTZ002-004>006-009-010-012-RIZ004-006-007-MAZ004-011-015-272300-
SOUTHERN NEW ENGLAND
 IN CT

CITY           SKY/WX    TMP DP  RH WIND       PRES   REMARKS
Bradley INTL   MOSUNNY   93  55  27 N6        29.87S HX  91
Hartford       MOSUNNY   95  57  27 W10       29.85F HX  94
Danbury        SUNNY     87  58  37 VRB6      29.91F
Wtrbury/Oxford MOSUNNY   86  57  37 CALM      29.94F
Bridgeport     SUNNY     87  61  41 S9        29.88F
Meriden        SUNNY     90  61  37 S5        29.87F HX  90
New Haven      MOSUNNY   85  63  47 SW7       29.88F
Chester        FAIR      84  63  48 S12       29.90S
Groton         SUNNY     79  66  64 S9        29.89S
Wilimantic     NOT AVBL

 IN RI

CITY           SKY/WX    TMP DP  RH WIND       PRES   REMARKS
Providence     MOSUNNY   86  63  45 SW15      29.87F
Block Island   SUNNY     80  64  58 SW16      29.91F
Westerly       SUNNY     83  58  42 SW10      29.90F
 IN MA

CITY           SKY/WX    TMP DP  RH WIND       PRES   REMARKS
Boston         MOSUNNY   80  65  59 E16       29.86
Worchester     SUNNY     87  53  31 VRB5      29.91S
Westfield      SUNNY     92  53  26 NW10      29.87S
Provincetown   SUNNY     82  66  58 SE9       29.89F
Nantucket      SUNNY     76  66  71 SW9       29.91F
$$

ANZ330-335-338-340-345-350-353-355-272300-
COASTAL MARINE OBSERVATIONS


STATION/POSITION TIME  SKY/WX   TEMP    WIND        PRES    VSBY  WAVE
                                AIR SEA DIR/SP/G                  HT/PER
                 (UTC)          (F)     (DEG/KT/KT) (MB)    (MI)  (FT/S)
NY HARB ENTRANCE 2050            79 78  170/ 10/ 12 1012.5          1/ 6
20S FIRE ISLAND  2050            77 77  180/  8/ 10 1012.7          2/ 6
GREAT SOUTH BAY  2100            78 82  200/ 12/ 14   N/A
23 SSW MONTAUK P 2050            76 72  200/  8/  8 1013.5          2/ 6
15 E BARNEGAT LI NOT AVBL
HUDSON CANYON    2050            79 80              1013.5          2/ 6
KINGS POINT      2100            85 73              1012.0
EXECUTION ROCKS  2100            88      70/  4/  6   N/A
CENTRAL LI SOUND 2115            80 77  190/  8/ 10   N/A           0
EASTERN LI SOUND 2100            73 69  170/  8/ 10   N/A
ROBBINS REEF     2100            80     160/ 16/ 17 1011.7
$$


>>>>>>>>>>>>>>>>>>>>>>>>>>>> KEY <<<<<<<<<<<<<<<<<<<<<<<<<<<
>                                                          <
>     SKY/WX - Sky Condition/Present Weather               <
>     TMP    - Temperature in Fahrenheit                   <
>     DP     - Dew Point in Fahrenheit                     <
>     RH     - Relative Humidity in Percent                <
>     WIND   - Direction (from) and Speed in MPH           <
>     PRES   - Mean Sea Level Pressure (inches of Hg)      <
>     WCI    - Wind Chill Index                            <
>     VSB    - VISIBILITY IN MILES                         <
>     HX     - HEAT INDEX                                  <
>     TC     - TEMPERATURE IN CELSIUS                      <
>     VRB    - VARIABLE WIND DIRECTION                     <
>                                                          <
>>>>>>>>>>>>>>>>>>>>>>>>>>>> KEY <<<<<<<<<<<<<<<<<<<<<<<<<<<




USA.gov is the U.S. government's official web portal to all federal, state and local government web resources and services.